Regional Weather Roundup
Issued by NWS Mt. Holly, NJ

Home | Current Version | Previous Version | Text Only | Print | Product List | Glossary On
Versions: 1 2 3 4 5 6 7 8 9 10 11 12 13 14 15 16 17 18 19 20 21 22 23 24 25 26 27 28 29 30 31 32 33 34 35 36 37 38 39 40 41 42 43 44 45 46 47 48 49 50
000
ASUS41 KPHI 050112
RWRPHI

REGIONAL WEATHER ROUNDUP
NATIONAL WEATHER SERVICE MOUNT HOLLY NJ
900 PM EDT FRI SEP 04 2015

NOTE:  "FAIR" INDICATES FEW OR NO CLOUDS BELOW 12,000 FEET WITH NO
SIGNIFICANT WEATHER AND/OR OBSTRUCTIONS TO VISIBILITY.

 * = STATION DOES NOT REPORT PRECIPITATION (E.G. RAIN, SNOW, ETC.)
        OR FOG.

NJZ015>026-050200-
SOUTHERN NEW JERSEY

CITY           SKY/WX    TMP DP  RH WIND       PRES   REMARKS
POMONA         CLOUDY    75  68  78 NE13      30.13R
WILDWOOD*      CLOUDY    75  70  83 NE9       30.12R
MILLVILLE      MOCLDY    75  67  76 E12G20    30.13R
WRIGHTSTOWN    CLOUDY    73  67  83 E9        30.13R
MOUNT HOLLY    CLOUDY    73  66  78 E5        30.15R
TRENTON        CLEAR     73  64  73 SE7       30.15R

$$
NJZ001>014-050200-
NORTHERN NEW JERSEY

CITY           SKY/WX    TMP DP  RH WIND       PRES   REMARKS
SUSSEX         CLEAR     70  66  87 CALM      30.18R
ANDOVER*         N/A     69  65  86 CALM      30.18R
MORRISTOWN     CLEAR     75  68  78 CALM      30.17R
NEWARK         PTCLDY    75  62  64 E12G21    30.16R
TETERBORO      CLEAR     78  63  59 SE6       30.15R
CALDWELL       CLEAR     76  65  68 S5        30.17R
SOMERVILLE     MOCLDY    74  65  73 VRB3      30.15R
ALLAIRE*       CLOUDY    73  63  68 E9        30.17R
TOMS RIVER*    CLOUDY    73  66  78 E6        30.16R

$$
PAZ043-044-047-054-055-060>062-066>071-050200-
EASTERN PENNSYLVANIA

CITY           SKY/WX    TMP DP  RH WIND       PRES   REMARKS
PHILADELPHIA   PTCLDY    76  66  71 E13       30.15R
NORTH PHILA    CLEAR     75  64  68 E13       30.17R
BLUE BELL      CLEAR     73  68  83 E8        30.15R
DOYLESTOWN     CLEAR     71  65  81 CALM      30.16R
QUAKERTOWN*    CLEAR     75  68  78 SE9       30.17R
POTTSTOWN      PTCLDY    74  68  81 CALM      30.16R
LANCASTER      MOCLDY    75  69  81 E6        30.14R
COATESVILLE    PTCLDY    73  68  83 SE7       30.16R
READING        PTCLDY    78  67  68 E9        30.14R
ALLENTOWN      PTCLDY    77  67  71 E7        30.15R
MOUNT POCONO   PTCLDY    70  66  87 E8        30.22R
HAZLETON       PTCLDY    72  68  88 E7        30.23R
WILKES BARRE   PTCLDY    75  67  76 E3        30.17R

$$
DEZALL-MDZ008-012-015-019-020-050200-
DELAWARE AND EASTERN MARYLAND

CITY           SKY/WX    TMP DP  RH WIND       PRES   REMARKS
WILMINGTON     CLOUDY    77  67  71 E12       30.14R
DOVER          PTCLDY    76  70  82 NE15      30.10R
GEORGETOWN     MOCLDY    75  71  87 NE10      30.11R
EASTON         CLEAR     77  72  83 E12       30.14
PATUXENT       MOCLDY    79  68  69 E15       30.08R
OCEAN CITY     CLEAR     78  72  81 NE14      30.08R
WALLOPS ISLAND LGT RAIN  79  73  82 NE17      30.07R
CAMBRIDGE      CLEAR     77  68  73 NE3       30.09R
SALISBURY      PTCLDY    75  72  90 NE10      30.09R

$$
PAZ001-021-NYZ056-072-MDZ011-DCZ001-050200-
OTHER NEARBY LOCATIONS

CITY           SKY/WX    TMP DP  RH WIND       PRES   REMARKS
HARRISBURG     CLOUDY    79  69  71 SE10      30.12R
STATE COLLEGE  PTCLDY    75  66  73 NE5       30.14R
WILLIAMSPORT   MOCLDY    72  68  87 E6        30.12R
BINGHAMTON     CLOUDY    72  65  78 SE12      30.19R
NEW YORK CITY  CLEAR     76  62  62 VRB5      30.19R
BALTIMORE      MOCLDY    80  70  71 E10       30.10R
WASHINGTON DC  MOCLDY    82  69  64 E12       30.09R

$$



USA.gov is the U.S. government's official web portal to all federal, state and local government web resources and services.